Regional Weather Roundup
Issued by NWS

Home | Current Version | Previous Version | Text Only | Print | Product List | Glossary On
Versions: 1 2 3 4 5 6 7 8 9 10 11 12 13 14 15 16 17 18 19 20 21 22 23 24 25 26 27 28 29 30 31 32 33 34 35 36 37 38 39 40 41 42 43 44 45 46 47 48 49 50
000
ASUS43 KIND 061009
RWRIN

WEATHER ROUNDUP FOR INDIANA
NATIONAL WEATHER SERVICE INDIANAPOLIS IN
500 AM EST FRI MAR 06 2015

NOTE: "FAIR" INDICATES FEW OR NO CLOUDS BELOW 12,000 FEET WITH NO
SIGNIFICANT WEATHER AND/OR OBSTRUCTIONS TO VISIBILITY.

* - STATION DOES NOT REPORT WEATHER SUCH AS PRECIPITATION OR FOG.

+ - STATION NOT QUALITY CONTROLLED BY THE NATIONAL WEATHER SERVICE.
    USE DATA WITH CAUTION...ESPECIALLY DEWPOINT AND RELATIVE
    HUMIDITY OBSERVATIONS.

INZ001>003-010>013-019-020-061100-
NORTHWEST INDIANA

CITY           SKY/WX    TMP DP  RH WIND       PRES   REMARKS
KNOX *+          N/A      1  -9  60 S5        30.50S WCI  -8
LA PORTE +     PTCLDY     0  -4  82 SW5       30.49S WCI -10
MICHIGAN CITY+ PTCLDY     3  -6  66 SW6       30.50S WCI  -8
MONTICELLO +   PTCLDY    -3  -5  87 S3        30.51F
RENSSELAER +   PTCLDY     0  -2  92 CALM      30.52S
VALPARAISO     PTCLDY    -1  -5  82 SW5       30.49S WCI -11

$$

LMZ046-743>745-061100-
SOUTHERN LAKE MICHIGAN

STATION/POSITION TIME  TEMP WIND        PRES
                       AIR  DIR/SP/G
                 (UTC) (F)  (DEG/KT/KT) (MB)
MICHIGAN CITY    1000    5  180/  9/ 11   N/A

$$

INZ004-005-014>016-021>024-061100-
NORTH CENTRAL INDIANA

CITY           SKY/WX    TMP DP  RH WIND       PRES   REMARKS
GOSHEN         PTCLDY     1  -5  75 S6        30.49R WCI -10
LOGANSPORT +   MOCLDY    -4  -8  84 S5        30.52F WCI -15
PERU/GRISSOM   MOCLDY    -1  -6  82 S3        30.50S
ROCHESTER +    MOCLDY     3   0  85 CALM      30.51S
SOUTH BEND     PTCLDY     1  -5  75 SW6       30.48F WCI -10
WARSAW +       PTCLDY     1  -4  78 CALM      30.49S

$$

INZ006>009-017-018-025>027-061100-
NORTHEAST INDIANA

CITY           SKY/WX    TMP DP  RH WIND       PRES   REMARKS
ANGOLA *+      CLEAR     -6 -20  49 CALM      30.45S
AUBURN +       PTCLDY     3  -2  78 CALM      30.50S
FORT WAYNE     MOCLDY     0  -5  79 SW5       30.51S WCI -10
HUNTINGTON +   MOCLDY    -1  -7  74 CALM      30.51S

$$

INZ028-029-035-036-043>045-051>053-061100-
WEST CENTRAL INDIANA

CITY           SKY/WX    TMP DP  RH WIND       PRES   REMARKS
CRAWFORDSVL +  PTCLDY    -8 -14  73 SE6       30.51F WCI -21
GREENCASTLE +  PTCLDY     1  -4  78 CALM      30.53F
LAFAYETTE      PTCLDY    -3  -6  87 CALM      30.53F
TERRE HAUTE    MOCLDY    -5  -9  83 CALM      30.56S

$$

INZ030>032-037>040-046>048-054>057-064-065-061100-
CENTRAL INDIANA

CITY           SKY/WX    TMP DP  RH WIND       PRES   REMARKS
CP ATTERBURY + CLEAR      3   0  85 CALM      30.56S
FRANKFORT +    PTCLDY   -13 -18  78 SE3       30.52F
GREENWOOD *+   CLEAR      3  -2  78 CALM      30.54R
INDIANAPOLIS   CLEAR      3  -3  76 W3        30.52S
-EAGLE CREEK   CLEAR      2  -2  83 CALM      30.53R
KOKOMO *+        N/A    N/A N/A N/A MISG        N/A
MARION +       MOCLDY    -6 -12  78 CALM      30.52R
MT COMFORT *+  PTCLDY    -4 -13  65 S3        30.52S
SHELBYVILLE    PTCLDY     2  -3  80 CALM      30.53S HAZE
ZIONSVILLE +   PTCLDY    -2  -7  78 CALM      30.53R

$$

INZ033-034-041-042-049-050-058-059-061100-
EAST CENTRAL INDIANA

CITY           SKY/WX    TMP DP  RH WIND       PRES   REMARKS
MUNCIE         PTCLDY     4  -1  80 CALM      30.51S

$$

INZ060-061-067>069-081>083-085>088-061100-
SOUTHWEST INDIANA

CITY           SKY/WX    TMP DP  RH WIND       PRES   REMARKS
EVANSVILLE     FAIR       0  -4  83 CALM      30.59S
HUNTINGBURG *+ PTCLDY     3   0  85 N3        30.56F
WASHINGTON +   CLEAR      2  -2  82 CALM      30.57S

$$

INZ062-063-066-070>080-084-089>092-061100-
SOUTH CENTRAL AND SOUTHEAST INDIANA

CITY           SKY/WX    TMP DP  RH WIND       PRES   REMARKS
BEDFORD +      PTCLDY     3   0  85 CALM      30.54F
BLOOMINGTON    PTCLDY     0  -4  83 CALM      30.53F
NORTH VERNON + PTCLDY     3   1  92 CALM      30.55R
SEYMOUR +        N/A      1  -2  85 CALM      30.56S HAZE

$$



USA.gov is the U.S. government's official web portal to all federal, state and local government web resources and services.